Location: Roanoke
(37.2710°N, 79.9420°W)
Time: 16:03:06
(UTC-04:00)

Daily predictions for brighter satellites

Satellite Brightness Start Highest point End
(mag) Time Altitude Azimuth Time Altitude Azimuth Time Altitude Azimuth
Envisat 4.2 21:08:35 10° S 21:13:24 43° W 21:18:13 10° NNW
Cosmos 1758 Rocket 4.1 21:09:30 10° SSE 21:13:38 39° E 21:17:45 10° NNE
Cosmos 1707 3.3 21:14:05 10° SSW 21:17:53 61° W 21:21:43 10° N
USA 215 3.6 21:12:24 10° ESE 21:18:51 61° NE 21:25:18 10° NW
Cosmos 1939 Rocket 3.5 21:19:17 10° S 21:23:18 58° W 21:27:17 10° NNW
Resurs 01 Rocket 1.7 21:23:10 10° SSE 21:27:35 85° WSW 21:32:02 10° NNW
Cosmos 1048 Rocket 4.1 21:22:22 10° SSW 21:27:40 87° ESE 21:33:04 10° NNE
ERS-2 2.1 21:26:48 10° SSE 21:30:27 77° ENE 21:34:07 10° N
USA 186 3.5 21:27:48 10° SSW 21:30:44 32° W 21:33:31 10° NNW
Cosmos 1726 4.3 21:29:29 10° NE 21:30:49 12° ENE 21:32:08 10° E
SJ-11-01 4.4 21:26:09 10° S 21:30:53 80° WSW 21:35:39 10° NNW
OAO 3 Rocket 3.3 21:27:26 10° W 21:32:23 69° S 21:37:17 10° E
Cosmos 921 Rocket 4.4 21:29:39 10° N 21:33:26 26° ENE 21:36:46 12° ESE
Cosmos 1825 Rocket 3.6 21:33:26 10° S 21:37:54 90° W 21:42:23 10° N
SL-8 R/B 4.0 21:34:33 10° WSW 21:39:22 72° NNW 21:44:12 10° NE
Cosmos 2278 Rocket 3.6 21:37:10 11° SE 21:40:33 19° E 21:44:23 10° ENE
ARGOS 3.6 21:36:17 11° SE 21:41:18 47° ENE 21:46:28 10° N
Cosmos 1315 Rocket 2.9 21:38:45 10° S 21:42:47 86° W 21:46:55 10° N
Cosmos 1461 4.5 21:39:44 11° SSE 21:42:49 20° ESE 21:46:10 10° ENE
MetOp-A 4.5 21:42:46 12° SE 21:47:29 51° ENE 21:52:39 10° N
Spot 2 Rocket 3.7 21:43:21 10° S 21:48:23 75° WSW 21:53:28 10° NNW
Cosmos 1844 Rocket 2.7 21:51:16 10° SSW 21:56:57 90° WNW 22:02:38 10° NNE
CZ-4B DEB 4.4 21:54:23 14° SSE 21:57:15 89° WSW 22:00:44 10° NNW
COSMOS 2406 3.9 21:55:13 10° N 22:00:37 40° ENE 22:04:22 19° ESE
Cosmos 1844 3.7 21:57:37 10° SSW 22:03:17 78° ESE 22:09:03 10° NNE
SL-08 RB Rocket 3.9 22:01:16 18° SSE 22:04:32 58° ENE 22:09:08 10° N
Cosmos 1238 Rocket 2.9 22:04:18 10° SSW 22:07:10 50° W 22:10:08 10° N
CZ-3C R/B 3.8 22:03:23 10° SW 22:07:11 12° SSW 22:09:34 10° S
KORONAS-FOTON 4.1 22:05:23 20° SSE 22:07:45 48° E 22:11:33 10° NNE
ATLAS 3B R/B 3.3 22:02:07 10° NNW 22:08:22 42° NE 22:12:52 18° ESE
SPOT 5 4.0 22:06:25 19° ESE 22:09:12 31° ENE 22:13:48 10° N
Cosmos 1110 Rocket 4.1 22:05:13 10° N 22:10:21 60° ENE 22:13:31 23° SE
USA 238 DEB 4.0 22:05:35 10° NNW 22:12:41 62° NE 22:17:40 21° SE
USA 238 4.0 22:05:42 10° NNW 22:12:47 61° NE 22:17:45 21° SE
Cosmos 2084 3.2 22:10:18 10° NW 22:14:08 72° WSW 22:16:07 27° SSE
ATLAS 5 CENTAUR R/B 2.8 22:14:23 22° ESE 22:14:23 22° ESE 22:17:48 10° ENE
Lacrosse 5 4.1 22:10:38 10° W 22:15:00 28° NW 22:19:23 10° NNE
Cosmos 1346 Rocket 2.9 22:12:21 10° NNW 22:16:23 78° W 22:19:03 21° S
Cosmos-2242 3.1 22:13:50 10° N 22:18:14 78° W 22:21:20 19° S
Iridium 18 4.3 22:18:12 27° S 22:19:55 84° E 22:23:42 10° N
S3M 4.1 22:15:36 16° SSE 22:20:38 60° E 22:26:55 10° NNE
Meteor 1-24 Rocket 4.4 22:15:03 10° SSW 22:20:58 60° W 22:26:56 10° N
Cosmos 494 Rocket 4.2 22:17:07 10° SSW 22:22:20 76° WNW 22:27:38 10° NNE
H-2A R/B 2.1 22:18:46 20° SSE 22:22:34 89° W 22:27:59 10° NNW
SPOT 1/Viking Rocket 4.2 22:20:08 24° ESE 22:22:37 40° ENE 22:27:25 10° N
Cosmos 1331 Rocket 4.0 22:17:35 10° NNW 22:22:47 70° ENE 22:25:39 27° SSE
Helios 1A 3.6 22:28:25 31° ESE 22:29:46 41° ENE 22:33:44 10° N
Cosmos 2082 Rocket 4.2 22:26:31 10° NNE 22:30:00 16° NE 22:33:00 11° E
Cosmos 1626 4.0 22:31:41 17° ENE 22:31:41 17° ENE 22:33:36 10° NE
Helios 1B rocket 3.1 22:29:37 10° NNE 22:33:22 33° E 22:33:41 33° ESE
Cosmos 1908 3.4 22:32:31 10° NNW 22:36:22 67° W 22:38:07 30° S
Centaur D-1AR AC-36 4.1 22:29:45 10° WSW 22:36:45 17° SW 22:38:59 14° SSW
ATLAS 2AS CENTAUR R/B 4.0 22:29:56 10° SW 22:37:28 51° NW 22:45:20 10° NNE
Cosmos 1842 Rocket 3.6 22:33:34 10° N 22:37:51 58° E 22:39:11 40° SE
CZ-2C R/B 4.0 22:35:29 10° NE 22:39:26 21° E 22:39:35 20° E
Cosmos 1340 2.5 22:37:52 10° N 22:41:40 79° E 22:42:33 50° SSE
CSL-04 DEB 4.2 22:40:29 41° S 22:41:47 86° WSW 22:45:44 10° NNW
Cosmos 1553 Rocket 4.0 22:37:48 13° S 22:43:17 77° W 22:49:22 10° N
SEDSat Delta rocket 4.0 22:39:10 10° SW 22:43:33 33° S 22:43:33 33° S
Landsat 7 4.1 22:42:27 36° SE 22:44:01 51° ENE 22:48:37 10° N
ERS-1 Rocket 3.2 22:46:45 28° S 22:49:21 67° WSW 22:54:23 10° NNW
NOSS 3-2 (C) 4.4 22:42:43 10° NNW 22:50:11 54° NE 22:54:47 27° ESE
Cosmos 1302 Rocket 4.0 22:46:30 10° NNW 22:51:47 70° ENE 22:53:36 41° SE
DMSP B5D2-2 4.2 22:47:29 10° N 22:52:43 73° WNW 22:56:34 18° SSW
Cosmos 883 Rocket 4.5 22:55:18 34° SSE 22:57:58 64° E 23:04:07 10° NNE
Cosmos 1300 2.6 22:57:31 10° N 23:01:21 69° E 23:01:28 68° E
Cosmos 2251 Rocket 3.8 22:56:52 14° SSW 23:01:30 67° WNW 23:06:49 10° NNE
USA 215 4.2 22:58:50 23° S 23:02:00 34° SW 23:07:53 10° WNW
Meteor 2-10 4.4 22:56:49 10° NNW 23:02:14 66° W 23:04:53 31° SSW
Terra 2.1 23:02:30 45° ESE 23:03:27 52° ENE 23:08:04 10° N
Cosmos 2315 Rocket 4.2 23:02:11 38° SE 23:04:14 54° E 23:10:24 10° NNE
RESURS DK-1 3.8 23:06:04 25° ENE 23:06:04 25° ENE 23:08:19 10° NE
Cosmos 1386 Rocket 4.3 22:58:52 10° N 23:04:58 86° E 23:07:22 39° S
Cosmos 1726 3.3 23:02:44 10° NNW 23:06:14 37° W 23:07:13 31° SW
Okean 3 Rocket 4.0 23:06:52 42° E 23:06:52 42° E 23:10:52 10° NNE
Cosmos 2221 2.4 23:03:32 10° N 23:07:50 64° E 23:08:10 61° ESE
H-2A R/B 3.8 23:09:34 34° SSE 23:10:27 35° SE 23:33:38 10° E
NOSS 2-2 (E) 3.2 23:11:46 58° SW 23:12:28 81° WNW 23:16:43 10° NNE
NOSS 3-4 (A) 3.6 23:08:36 10° SW 23:14:44 72° NW 23:21:07 10° NNE
NOSS 3-4 (C) 3.6 23:08:42 10° SW 23:14:48 73° NW 23:21:12 10° NNE
CENTAUR R/B 3.9 23:07:58 10° NNW 23:15:30 42° NE 23:20:12 24° ESE
OAO 3 Rocket 3.6 23:10:59 10° W 23:15:31 47° SSW 23:15:31 47° SSW
Meteor 1-29 3.4 23:12:57 10° NNE 23:15:43 56° NNE 23:15:43 56° NNE
Cosmos 1328 3.9 23:21:27 65° NE 23:21:27 65° NE 23:24:59 10° NNE
CZ-2C R/B 3.3 23:19:33 49° SE 23:21:06 70° ENE 23:26:51 10° N
Cosmos 1461 4.3 23:17:14 10° SW 23:21:36 42° NW 23:26:09 10° NNE
Cosmos 2278 Rocket 2.9 23:18:53 11° SW 23:24:08 53° WNW 23:29:42 10° NNE
IGS 5A 3.8 23:33:19 56° WSW 23:33:25 56° W 23:37:30 10° NNW
ATLAS 3B CENTAUR R/B 3.6 23:18:17 10° WSW 23:33:38 43° S 23:35:02 41° SSE
APEX 4.5 23:32:32 10° NW 23:35:06 32° W 23:35:06 32° W
Nimbus 7 Rocket 4.4 23:33:06 10° NNE 23:39:08 82° WNW 23:41:13 44° SSW
NOSS 2-2 (D) 4.3 23:42:35 38° W 23:43:26 45° NW 23:47:30 10° NNE
CARTOSAT-1 4.3 23:43:53 44° WSW 23:44:02 44° W 23:48:11 10° NNW
SPOT 5 4.4 23:45:39 24° SW 23:47:11 28° W 23:51:40 10° NW
Cosmos 2369 Rocket 4.1 23:54:56 16° ENE 23:54:56 16° ENE 23:57:00 10° ENE
Cosmos 1076 Rocket 4.5 23:55:44 38° W 23:55:59 39° W 23:59:58 10° N
